Location: Borojevi?i
(45.0486°N, 16.2297°E)
Time: 08:26:11
(UTC+00:00)

SPOT 3 Rocket - Pass Details

Date: 08 August 2020
Orbit: 779 x 795 km, 98.8° (Epoch: 26 September)

Event Time Altitude Azimuth Distance (km) Brightness Sun altitude
Exits shadow 19:14:14 - 167° (SSE) 2,852 6.0 -10.4°
Reaches altitude 10° 19:15:28 10° 168° (SSE) 2,355 5.6 -10.6°
Maximum altitude 19:20:41 81° 256° (WSW) 808 3.7 -11.4°
Drops below altitude 10° 19:25:55 10° 344° (NNW) 2,364 6.9 -12.1°
Sets 19:28:15 0° 345° (NNW) 3,295 7.7 -12.4°
